Other Public Products
Issued by NWS Grand Forks, ND

Home | Current Version | Previous Version | Text Only | Print | Product List | Glossary On
Versions: 1 2 3 4 5 6 7 8 9 10 11 12 13 14 15 16 17 18 19 20 21 22 23 24 25 26 27 28 29 30 31 32 33 34 35 36 37 38 39 40 41 42 43 44 45 46 47 48 49 50
000
FPUS83 KFGF 290731
OPUFGF
PRAIRIE TO PINES WEATHER ROUNDUP
NATIONAL WEATHER SERVICE EASTERN NORTH DAKOTA/GRAND FORKS ND
200 AM CDT THU JUN 29 2017

 **SATELLITE DATA USED TO AUGMENT SKY COVER AT AUTOMATED STATIONS**
 *****  WEATHER ACROSS EASTERN NORTH DAKOTA  *****

CITY           SKY/WX    TMP DP  RH WIND       PRES   REMARKS
GRAND FORKS    CLOUDY    63  61  93 CALM      29.71S
GRAND FORKS AF CLOUDY    60  60 100 CALM      29.72R
GRAND CITY NWS NOT AVBL
BUXTON           N/A     61  61  98 NE2         N/A
DEVILS LAKE    FAIR      56  55  97 CALM      29.76R
FARGO          CLOUDY    64  61  90 N12       29.70F
WAHPETON ARPT  CLOUDY    61  57  88 N6        29.69F
$$

 *****  WEATHER ACROSS CENTRAL AND WESTERN NORTH DAKOTA  *****

CITY           SKY/WX    TMP DP  RH WIND       PRES   REMARKS
JAMESTOWN      FAIR      56  52  86 N3        29.73S
BISMARCK       FAIR      62  54  74 NE6       29.74F
MINOT          FAIR      58  50  75 NW3       29.77R
MINOT AFB      FAIR      52  49  88 NW6       29.76S
GARRISON         N/A     60  52  74 CALM      29.76F
WILLISTON      FAIR      56  48  74 NW7       29.79S
DICKINSON      FAIR      55  43  63 CALM      29.77S
HETTINGER      FAIR      58  44  60 SE5       29.80R
$$

 *****  OTHER OBSERVATIONS NORTHEAST NORTH DAKOTA  *****

CITY           SKY/WX    TMP DP  RH WIND       PRES   REMARKS
WALHALLA       NOT AVBL
LANGDON        FOG       54  54 100 W3        29.75S VSB<1/4
CAVALIER       FOG       57  57 100 CALM      29.72R VSB<1/4
GRAFTON        CLOUDY    59  59 100 CALM      29.74R FOG
CANDO          NOT AVBL
FORT TOTTEN      N/A     57  56  97 CALM      29.95S
ROLLA            N/A     54  52  94 NW7       29.77S
RUGBY          NOT AVBL
 ***** THE ABOVE OBSERVATIONS ARE NON NWS ARE NOT QUALITY
        CONTROLLED AND MAY MIS-REPORT RAIN FOR SNOW...
$$

 *****  OTHER OBSERVATIONS SOUTHEAST NORTH DAKOTA *****

CITY           SKY/WX    TMP DP  RH WIND       PRES   REMARKS
COOPERSTOWN    FOG       57  57 100 W5        29.74S VSB 1/2
VALLEY CITY    FOG       55  55 100 NW7       29.74S VSB<1/4
OAKES          NOT AVBL
GWINNER        CLOUDY    61  57  88 NW6       29.71R
SHEYENNE NWR     N/A     57  57 100 NE3       29.95S
BUFFALO          N/A     59  57  93 SW8         N/A
WYNDMERE       NOT AVBL
 ***** THE ABOVE OBSERVATIONS ARE NON NWS ARE NOT QUALITY
       CONTROLLED AND MAY MIS-REPORT RAIN FOR SNOW...
$$

  *****  WEATHER ACROSS NORTHERN MINNESOTA  *****

CITY           SKY/WX    TMP DP  RH WIND       PRES   REMARKS
FLAG ISLAND    CLOUDY    63  57  82 N8        29.69S
WARROAD        FAIR      57  54  88 NW3       29.71S
ROSEAU           N/A     57  54  88 CALM      29.71F
HALLOCK        FOG       55  54  94 CALM      29.71S VSB 1/4
THF RVR FALLS  CLOUDY    59  57  94 N5        29.72S
HALSTAD          N/A     61  59  94 N6          N/A
FOSSTON        CLOUDY    57  57 100 N5        29.71S
BAUDETTE       CLOUDY    60  60 100 NW7       29.68S
WASKISH        FAIR      59  57  94 NW5       29.67S
CROOKSTON      CLOUDY    61  61 100 N6        29.72S
$$
  *****  WEATHER ACROSS CENTRAL AND WEST MINNESOTA  *****

CITY           SKY/WX    TMP DP  RH WIND       PRES   REMARKS
BEMIDJI        MOCLDY    59  58  97 NW7       29.67R
PARK RAPIDS    CLOUDY    61  57  87 NW7       29.67R
WADENA         CLOUDY    59  57  94 NW6       29.68S
DETROIT LAKES  CLOUDY    59  59 100 N7        29.71S
MOORHEAD       CLOUDY    63  59  88 N12       29.70F
FERGUS FALLS   CLOUDY    63  61  94 N10G17    29.67F
ELBOW LAKE     CLOUDY    62  60  93 N8        29.69F
MORRIS MN      FAIR      61  57  88 NW3       29.68S
STAPLES        CLOUDY    61  57  88 W9        29.68R
WHEATON        FAIR      59  57  94 CALM      29.71S FOG
$$
  *****  WEATHER ELSEWHERE ACROSS MINNESOTA  *****

CITY           SKY/WX    TMP DP  RH WIND       PRES   REMARKS
DULUTH         TSTM      59  59 100 N6        29.54F FOG
INTRNTL FALLS  LGT RAIN  59  57  93 N5        29.65S FOG
ELY            LGT RAIN  57  57 100 NE5       29.58S
CLOQUET        RAIN      61  57  88 W6        29.57R
BRAINERD       CLOUDY    61  60  97 NW9       29.63S
HIBBING        LGT RAIN  58  58 100 N8        29.58S
ALEXANDRIA     CLOUDY    63  59  87 NW12      29.70S
SAINT CLOUD    CLOUDY    64  61  90 NW12      29.65R
MINNEAPOLIS    CLOUDY    69  59  70 W10       29.63S
$$

  *****  WEATHER ACROSS SOUTH DAKOTA  *****

CITY           SKY/WX    TMP DP  RH WIND       PRES   REMARKS
SIOUX FALLS    FAIR      63  58  83 N3        29.75R
BROOKINGS      FAIR      55  52  89 SW6       29.76R
WATERTOWN      FAIR      54  53  97 SW3       29.75R
HURON          FAIR      58  48  69 CALM      29.76R
SISSETON         N/A     59  58  96 NW5       29.69S
ABERDEEN       FAIR      52  48  86 W6        29.76R
MITCHELL       FAIR      61  48  62 CALM      29.76S
PIERRE         FAIR      60  43  53 E7        29.74F
MOBRIDGE       FAIR      67  44  43 E12       29.72F
RAPID CITY     FAIR      57  49  74 NW9       29.81F
$$

  *****  SOME WEATHER IN NEARBY STATES *****

CITY           SKY/WX    TMP DP  RH WIND       PRES   REMARKS
GLASGOW MT     FAIR      63  41  44 S9        29.75R
GREAT FALLS MT MOCLDY    55  44  66 NW5       29.98R
CHEYENNE WY    FAIR      63  38  39 NE7       29.95F
SCOTTSBLUFF NE FAIR      64  52  64 E7        29.82F
OMAHA NE       FAIR      72  65  78 SE3       29.72R
DES MOINES IA  MOCLDY    68  66  93 S5        29.72R
DAVENPORT IA   NOT AVBL
CHICAGO IL     MOCLDY    67  64  90 S8        29.77F
EAU CLAIRE WI  CLOUDY    66  64  93 W6        29.58F
LA CROSSE WI   FAIR      70  65  84 S9        29.62F
$$

  *****  SOME NATIONAL WEATHER *****

CITY           SKY/WX    TMP DP  RH WIND       PRES   REMARKS
LA GUARDIA NY  MOCLDY    71  55  56 SW9       30.13S
RALEIGH NC     MOCLDY    68  57  68 S3        30.20S
ATLANTA GA     CLOUDY    73  65  75 SE6       30.15S
NEW ORLEANS LA LGT RAIN  73  72  96 SE8       29.97F
OKLAHOMA CITY  FAIR      75  66  73 S14       29.81F
ALBUQUERQUE NM FAIR      78  15   9 VRB3      29.98S
SALT LAKE CITY FAIR      73  48  41 NW6       29.91R
LOS ANGELES CA CLOUDY    65  60  84 VRB5      29.91S
BOISE ID       FAIR      67  38  34 W6        29.89R
SEATTLE WA     FAIR      57  50  77 SW5       30.10R
$$

*** WEATHER ACROSS MANITOBA...SASKATCHEWAN AND ONTARIO ***
                ***ONTARIO***

CITY           SKY/WX    TMP DP  RH WIND       PRES   REMARKS
GERALDTON      MOCLDY    54  48  82 E6        29.74F
THUNDER BAY    LGT RAIN  54  52  94 E14G22    29.63F FOG
SIOUX LOOKOUT  CLOUDY    61  50  67 NE2       29.69F
TORONTO        LGT RAIN  61  55  82 SE5       30.00F
BIG TROUT LK   CLOUDY    55  48  76 E7        29.86S
PICKLE LAKE    NOT AVBL
DRYDEN         LGT RAIN  63  54  72 NE6       29.69R
KENORA         CLOUDY    59  59 100 N7        29.71R
$$
                *** MANITOBA***

CITY           SKY/WX    TMP DP  RH WIND       PRES   REMARKS
BRANDON        CLEAR     52  52 100 N7        29.74S
DAUPHIN        CLEAR     57  55  94 SW5       29.73R
ISLAND LAKE    LGT RAIN  54  54 100 E5G17     29.79
PILOT MOUND      N/A     55  54  94 SW2         N/A
THE PAS        CLOUDY    52  50  93 NW8       29.76R
THOMPSON       LGT RAIN  50  50 100 NE9       29.80S FOG
WINNIPEG       PTCLDY    54  54 100 CALM      29.72S
LYNN LAKE      LGT RAIN  46  45  93 NE15G21   29.85S
CHURCHILL      MOCLDY    41  39  93 E8        30.08R
GILLAM         CLOUDY    48  43  81 E8        29.90F
$$
                ***SASKATCHEWAN***

CITY           SKY/WX    TMP DP  RH WIND       PRES   REMARKS
ESTEVAN        MOCLDY    57  55  94 S3        29.77F
KINDERSLEY     PTCLDY    52  52 100 N10       29.83R
LLOYDMINSTER   CLOUDY    50  43  76 NE13G18   29.93R
PRINCE ALBERT  LGT RAIN  50  48  93 N10G18    29.83R FOG
REGINA         CLOUDY    57  52  82 N7        29.81S
YORKTON        MOCLDY    55  48  76 NW7       29.76S



USA.gov is the U.S. government's official web portal to all federal, state and local government web resources and services.